| time (UTC) | temp C | wind direction | speed KPH | gust KPH | rain 1hr cm | rain 24hr cm | rain mn cm | humidity % | barometer mb |
| 20260506103516 | 7 | 0.0 | 0.0 | 0.00 | 0.00 | 0.00 | 98 | 1019.6 | |
| 20260506102536 | 7 | 0.0 | 0.0 | 0.00 | 0.00 | 0.00 | 98 | 1019.4 | |
| 20260506101516 | 7 | 0.0 | 0.0 | 0.00 | 0.00 | 0.00 | 98 | 1019.4 | |
| 20260506100516 | 7 | 0.0 | 0.0 | 0.00 | 0.03 | 0.00 | 98 | 1019.4 | |
| 20260506095516 | 7 | 0.0 | 0.0 | 0.00 | 0.03 | 0.00 | 97 | 1019.4 | |
| 20260506094516 | 7 | 0.0 | 0.0 | 0.00 | 0.03 | 0.00 | 97 | 1019.5 | |
| 20260506093516 | 7 | 0.0 | 0.0 | 0.00 | 0.03 | 0.00 | 98 | 1019.4 | |
| 20260506092516 | 7 | 0.0 | 0.0 | 0.00 | 0.03 | 0.00 | 98 | 1019.4 | |
| 20260506091516 | 7 | 0.0 | 0.0 | 0.00 | 0.03 | 0.00 | 98 | 1019.4 | |
| 20260506090516 | 7 | 0.0 | 0.0 | 0.00 | 0.03 | 0.00 | 98 | 1019.4 | |
| 20260506085516 | 7 | 0.0 | 0.0 | 0.00 | 0.03 | 0.00 | 98 | 1019.4 | |
| 20260506084516 | 7 | 0.0 | 0.0 | 0.00 | 0.03 | 0.00 | 97 | 1019.1 | |
| 20260506083516 | 7 | 0.0 | 0.0 | 0.00 | 0.03 | 0.00 | 97 | 1019.1 | |
| 20260506082516 | 7 | 0.0 | 0.0 | 0.00 | 0.03 | 0.00 | 97 | 1019.2 | |
| 20260506081516 | 7 | 0.0 | 0.0 | 0.00 | 0.03 | 0.00 | 97 | 1019.2 | |
| 20260506080516 | 7 | 0.0 | 0.0 | 0.00 | 0.03 | 0.00 | 97 | 1019.1 | |
| 20260506072516 | 7 | 0.0 | 0.0 | 0.00 | 0.03 | 0.00 | 97 | 1018.5 | |
| 20260506071515 | 7 | 0.0 | 0.0 | 0.00 | 0.03 | 0.00 | 97 | 1018.3 | |
| 20260506070515 | 7 | 0.0 | 0.0 | 0.00 | 0.03 | 0.00 | 97 | 1018.2 | |
| 20260506062517 | 7 | 0.0 | 0.0 | 0.00 | 0.03 | 0.03 | 97 | 1017.7 | |
| 20260506061517 | 7 | 0.0 | 0.0 | 0.00 | 0.03 | 0.03 | 97 | 1017.6 | |
| 20260506060517 | 7 | 0.0 | 0.0 | 0.00 | 0.03 | 0.03 | 97 | 1017.5 | |
| 20260506050516 | 7 | 0.0 | 0.0 | 0.00 | 0.03 | 0.03 | 97 | 1017.3 | |
| 20260506044517 | 7 | 0.0 | 0.0 | 0.00 | 0.03 | 0.03 | 97 | 1017.0 | |
| 20260506043517 | 7 | 0.0 | 0.0 | 0.00 | 0.05 | 0.03 | 97 | 1016.7 | |
| 20260506042516 | 7 | 0.0 | 0.0 | 0.00 | 0.05 | 0.03 | 96 | 1016.6 | |
| 20260506041517 | 7 | 0.0 | 1.6 | 0.00 | 0.05 | 0.03 | 96 | 1016.6 | |
| 20260506040517 | 7 | 0.0 | 0.0 | 0.00 | 0.05 | 0.03 | 96 | 1016.3 | |
| 20260506035517 | 7 | 0.0 | 0.0 | 0.00 | 0.05 | 0.03 | 96 | 1016.1 | |
| 20260506034517 | 7 | 0.0 | 0.0 | 0.00 | 0.05 | 0.03 | 96 | 1015.9 | |
| 20260506033516 | 7 | 0.0 | 0.0 | 0.00 | 0.05 | 0.03 | 96 | 1015.9 | |
| 20260506032516 | 8 | 0.0 | 0.0 | 0.00 | 0.05 | 0.03 | 96 | 1015.7 | |
| 20260506031536 | 8 | 0.0 | 0.0 | 0.00 | 0.05 | 0.03 | 96 | 1015.7 | |
| 20260506030516 | 8 | 0.0 | 1.6 | 0.00 | 0.05 | 0.03 | 96 | 1015.6 | |
| 20260506025536 | 8 | 0.0 | 0.0 | 0.00 | 0.05 | 0.03 | 96 | 1015.3 | |
| 20260506024516 | 8 | 0.0 | 4.8 | 0.00 | 0.05 | 0.03 | 95 | 1015.3 | |
| 20260506023516 | 8 | 0.0 | 4.8 | 0.00 | 0.05 | 0.03 | 95 | 1015.3 | |
| 20260506022516 | 8 | 0.0 | 4.8 | 0.00 | 0.05 | 0.03 | 95 | 1015.2 | |
| 20260506021516 | 8 | 0.0 | 3.2 | 0.00 | 0.05 | 0.03 | 95 | 1015.4 | |
| 20260506020516 | 8 | 0.0 | 4.8 | 0.00 | 0.05 | 0.03 | 94 | 1015.2 | |
| 20260506015516 | 8 | 0.0 | 4.8 | 0.00 | 0.05 | 0.03 | 94 | 1015.2 | |
| 20260506014516 | 8 | 203 | 1.6 | 3.2 | 0.00 | 0.05 | 0.03 | 94 | 1015.2 |
| 20260506013516 | 9 | 0.0 | 0.0 | 0.00 | 0.05 | 0.03 | 94 | 1015.2 | |
| 20260506012516 | 9 | 0.0 | 0.0 | 0.00 | 0.05 | 0.03 | 93 | 1015.0 | |
| 20260506011516 | 9 | 0.0 | 6.4 | 0.00 | 0.05 | 0.03 | 93 | 1015.0 | |
| 20260506010516 | 10 | 0.0 | 4.8 | 0.00 | 0.05 | 0.03 | 93 | 1015.0 | |
| 20260506005516 | 10 | 0.0 | 4.8 | 0.00 | 0.05 | 0.03 | 93 | 1015.0 | |
| 20260506004536 | 10 | 203 | 1.6 | 4.8 | 0.00 | 0.05 | 0.03 | 92 | 1015.2 |
| 20260506003536 | 10 | 0.0 | 6.4 | 0.00 | 0.05 | 0.03 | 91 | 1015.2 | |
| 20260506002516 | 10 | 0.0 | 0.0 | 0.00 | 0.05 | 0.03 | 91 | 1015.2 | |
| 20260506001515 | 10 | 0.0 | 8.0 | 0.00 | 0.05 | 0.03 | 90 | 1015.2 | |
| 20260506000516 | 10 | 180 | 1.6 | 8.0 | 0.00 | 0.05 | 0.03 | 90 | 1015.2 |
| 20260505235515 | 11 | 180 | 3.2 | 8.0 | 0.00 | 0.05 | 0.03 | 89 | 1015.4 |
| 20260505234516 | 11 | 180 | 1.6 | 6.4 | 0.00 | 0.05 | 0.03 | 90 | 1015.4 |
| 20260505233515 | 11 | 270 | 3.2 | 12.9 | 0.00 | 0.05 | 0.03 | 87 | 1015.4 |
| 20260505232515 | 11 | 0.0 | 3.2 | 0.00 | 0.05 | 0.03 | 88 | 1015.5 | |
| 20260505231536 | 12 | 135 | 1.6 | 9.7 | 0.00 | 0.05 | 0.03 | 88 | 1015.5 |
| 20260505230516 | 12 | 0.0 | 4.8 | 0.00 | 0.05 | 0.03 | 87 | 1015.8 | |
| 20260505225516 | 12 | 158 | 3.2 | 8.0 | 0.00 | 0.05 | 0.03 | 87 | 1015.8 |
| 20260505224515 | 12 | 135 | 1.6 | 8.0 | 0.00 | 0.05 | 0.03 | 87 | 1015.8 |
| 20260505223517 | 12 | 203 | 3.2 | 8.0 | 0.00 | 0.05 | 0.03 | 86 | 1015.9 |
| 20260505222538 | 12 | 68 | 1.6 | 9.7 | 0.00 | 0.05 | 0.03 | 85 | 1016.0 |
| 20260505221517 | 13 | 90 | 3.2 | 8.0 | 0.00 | 0.05 | 0.03 | 85 | 1016.2 |
| 20260505220518 | 13 | 90 | 1.6 | 8.0 | 0.00 | 0.05 | 0.03 | 83 | 1016.2 |
| 20260505215517 | 13 | 225 | 3.2 | 11.3 | 0.00 | 0.05 | 0.03 | 84 | 1016.3 |
| 20260505214517 | 14 | 135 | 1.6 | 8.0 | 0.00 | 0.05 | 0.03 | 83 | 1016.5 |
| 20260505213517 | 14 | 113 | 3.2 | 9.7 | 0.00 | 0.05 | 0.03 | 82 | 1016.4 |
| 20260505212517 | 15 | 158 | 3.2 | 16.1 | 0.00 | 0.05 | 0.03 | 81 | 1016.6 |
| 20260505211517 | 14 | 293 | 1.6 | 8.0 | 0.00 | 0.05 | 0.03 | 83 | 1016.6 |
| 20260505210517 | 13 | 0 | 3.2 | 8.0 | 0.00 | 0.05 | 0.03 | 83 | 1016.4 |
| 20260505205517 | 14 | 225 | 3.2 | 6.4 | 0.00 | 0.05 | 0.03 | 81 | 1016.6 |
| 20260505204517 | 14 | 293 | 1.6 | 8.0 | 0.00 | 0.05 | 0.03 | 84 | 1016.6 |
| 20260505203517 | 14 | 113 | 3.2 | 6.4 | 0.00 | 0.05 | 0.03 | 84 | 1016.6 |
| 20260505202517 | 13 | 315 | 1.6 | 6.4 | 0.00 | 0.05 | 0.03 | 87 | 1016.5 |
| 20260505201517 | 13 | 90 | 3.2 | 6.4 | 0.00 | 0.05 | 0.03 | 85 | 1016.5 |
| 20260505200537 | 13 | 0 | 3.2 | 8.0 | 0.00 | 0.05 | 0.03 | 86 | 1016.5 |
| 20260505195517 | 13 | 203 | 3.2 | 11.3 | 0.00 | 0.05 | 0.03 | 88 | 1016.6 |
| 20260505194517 | 12 | 203 | 1.6 | 8.0 | 0.00 | 0.05 | 0.03 | 90 | 1016.4 |
| 20260505193517 | 12 | 338 | 1.6 | 6.4 | 0.00 | 0.05 | 0.03 | 91 | 1016.4 |
| 20260505192516 | 12 | 158 | 1.6 | 9.7 | 0.00 | 0.05 | 0.03 | 91 | 1016.4 |
| 20260505191517 | 12 | 248 | 3.2 | 8.0 | 0.00 | 0.05 | 0.03 | 92 | 1016.4 |
| 20260505190517 | 11 | 203 | 1.6 | 4.8 | 0.00 | 0.05 | 0.03 | 95 | 1016.2 |
| 20260505185516 | 11 | 225 | 1.6 | 8.0 | 0.00 | 0.05 | 0.03 | 96 | 1016.1 |
| 20260505184537 | 10 | 203 | 3.2 | 8.0 | 0.00 | 0.05 | 0.03 | 96 | 1015.9 |
| 20260505183517 | 10 | 203 | 3.2 | 11.3 | 0.00 | 0.05 | 0.03 | 96 | 1015.8 |
| 20260505182516 | 10 | 248 | 1.6 | 6.4 | 0.00 | 0.05 | 0.03 | 96 | 1015.7 |
| 20260505181517 | 10 | 248 | 3.2 | 6.4 | 0.00 | 0.05 | 0.03 | 97 | 1015.7 |
| 20260505180516 | 9 | 225 | 4.8 | 9.7 | 0.00 | 0.05 | 0.03 | 97 | 1015.4 |
| 20260505175516 | 9 | 203 | 3.2 | 11.3 | 0.00 | 0.05 | 0.03 | 97 | 1015.4 |
| 20260505174517 | 9 | 225 | 3.2 | 6.4 | 0.00 | 0.05 | 0.03 | 97 | 1015.4 |
| 20260505173517 | 9 | 248 | 3.2 | 8.0 | 0.00 | 0.05 | 0.03 | 97 | 1015.3 |
| 20260505172516 | 9 | 248 | 3.2 | 6.4 | 0.00 | 0.08 | 0.03 | 97 | 1015.3 |
| 20260505171536 | 9 | 0.0 | 1.6 | 0.00 | 0.08 | 0.03 | 97 | 1015.5 | |
| 20260505170536 | 9 | 0.0 | 6.4 | 0.00 | 0.10 | 0.03 | 97 | 1015.4 | |
| 20260505165516 | 9 | 0.0 | 6.4 | 0.00 | 0.10 | 0.03 | 98 | 1015.4 | |
| 20260505164516 | 9 | 315 | 1.6 | 6.4 | 0.00 | 0.13 | 0.03 | 98 | 1015.4 |
| 20260505163516 | 8 | 0.0 | 0.0 | 0.00 | 0.13 | 0.03 | 98 | 1015.2 | |
| 20260505162516 | 8 | 0.0 | 0.0 | 0.00 | 0.13 | 0.03 | 98 | 1015.2 | |
| 20260505161516 | 8 | 0.0 | 0.0 | 0.00 | 0.13 | 0.03 | 98 | 1015.1 | |
| 20260505160516 | 8 | 293 | 1.6 | 6.4 | 0.00 | 0.13 | 0.03 | 98 | 1015.1 |
| 20260505152516 | 7 | 0.0 | 0.0 | 0.00 | 0.15 | 0.03 | 98 | 1014.7 | |
| 20260505151516 | 7 | 0.0 | 0.0 | 0.00 | 0.15 | 0.03 | 98 | 1014.7 | |
| 20260505150516 | 7 | 0.0 | 4.8 | 0.00 | 0.15 | 0.03 | 98 | 1014.7 | |
| 20260505140515 | 6 | 0.0 | 0.0 | 0.00 | 0.20 | 0.03 | 98 | 1014.4 | |
| 20260505124515 | 6 | 0.0 | 0.0 | 0.00 | 0.20 | 0.03 | 98 | 1014.0 | |
| 20260505123515 | 6 | 0.0 | 0.0 | 0.00 | 0.20 | 0.03 | 98 | 1014.0 | |
| 20260505122518 | 6 | 0.0 | 0.0 | 0.00 | 0.20 | 0.03 | 98 | 1014.0 | |
| 20260505121517 | 6 | 0.0 | 0.0 | 0.00 | 0.20 | 0.03 | 98 | 1014.2 | |
| 20260505120517 | 6 | 0.0 | 0.0 | 0.00 | 0.20 | 0.03 | 98 | 1014.2 | |
| 20260505115517 | 6 | 0.0 | 0.0 | 0.00 | 0.20 | 0.03 | 98 | 1014.2 | |
| 20260505114537 | 6 | 0.0 | 0.0 | 0.00 | 0.20 | 0.03 | 98 | 1014.0 | |
| 20260505113517 | 6 | 0.0 | 0.0 | 0.00 | 0.20 | 0.03 | 98 | 1014.2 | |
| 20260505112517 | 6 | 0.0 | 0.0 | 0.00 | 0.20 | 0.03 | 98 | 1014.2 | |
| 20260505111638 | 6 | 0.0 | 0.0 | 0.00 | 0.20 | 0.03 | 98 | 1014.2 | |
| 20260505110538 | 6 | 0.0 | 0.0 | 0.03 | 0.20 | 0.03 | 98 | 1014.1 |